• în România
  • Lista ţărilor
  • Pe 7 zile
  • Temperatura apei
  • Hartă satelitară
  • Meteo pe hartă
  • Widget-uri
  • user-avatar
    Intrare

    Meteo pe oră la Sazoninki

    Astăzi, 25 Aprilie, Miercuri

    Timp Temperatura Precipitaţii Vânt Presiune Umiditate
    00:00 +6°C° 0 mm 2 m/s 737 mmHg 94%
    01:00 +5°C° 0 mm 2 m/s 737 mmHg 94%
    02:00 +5°C° 0 mm 2 m/s 737 mmHg 95%
    03:00 +5°C° 0 mm 2 m/s 736 mmHg 94%
    04:00 +5°C° 0 mm 2 m/s 736 mmHg 93%
    05:00 +5°C° 0 mm 2 m/s 736 mmHg 92%
    06:00 +5°C° 0,4 mm 3 m/s 736 mmHg 90%
    07:00 +5°C° 0,4 mm 3 m/s 735 mmHg 88%
    08:00 +7°C° 0,4 mm 3 m/s 735 mmHg 86%
    09:00 +8°C° 0,3 mm 4 m/s 735 mmHg 79%
    10:00 +10°C° 0,3 mm 4 m/s 735 mmHg 73%
    11:00 +10°C° 0,3 mm 5 m/s 735 mmHg 66%
    12:00 +12°C° 0,1 mm 5 m/s 735 mmHg 61%
    13:00 +12°C° 0,1 mm 5 m/s 735 mmHg 57%
    14:00 +13°C° 0,1 mm 5 m/s 735 mmHg 52%
    15:00 +13°C° 0 mm 4 m/s 735 mmHg 53%
    16:00 +12°C° 0 mm 4 m/s 734 mmHg 54%
    17:00 +12°C° 0 mm 3 m/s 734 mmHg 54%
    18:00 +11°C° 0 mm 3 m/s 734 mmHg 61%
    19:00 +9°C° 0 mm 2 m/s 734 mmHg 67%
    20:00 +9°C° 0 mm 1 m/s 733 mmHg 73%
    21:00 +8°C° 0,1 mm 2 m/s 733 mmHg 78%
    22:00 +7°C° 0,1 mm 2 m/s 732 mmHg 84%
    23:00 +7°C° 0,1 mm 2 m/s 731 mmHg 89%

    Mâine, 26 Aprilie, Joi

    Timp Temperatura Precipitaţii Vânt Presiune Umiditate
    00:00 +7°C° 0,2 mm 2 m/s 731 mmHg 91%
    01:00 +7°C° 0,2 mm 2 m/s 730 mmHg 92%
    02:00 +7°C° 0,2 mm 2 m/s 730 mmHg 94%
    03:00 +8°C° 0,1 mm 3 m/s 730 mmHg 93%
    04:00 +8°C° 0,1 mm 3 m/s 729 mmHg 92%
    05:00 +7°C° 0,1 mm 4 m/s 729 mmHg 91%
    06:00 +7°C° 0,1 mm 4 m/s 730 mmHg 89%
    07:00 +7°C° 0,1 mm 5 m/s 730 mmHg 86%
    08:00 +7°C° 0,1 mm 5 m/s 730 mmHg 84%
    09:00 +7°C° 0,2 mm 5 m/s 731 mmHg 82%
    10:00 +7°C° 0,2 mm 6 m/s 732 mmHg 80%
    11:00 +7°C° 0,2 mm 6 m/s 733 mmHg 78%
    12:00 +8°C° 0,1 mm 6 m/s 733 mmHg 70%
    13:00 +10°C° 0,1 mm 6 m/s 734 mmHg 62%
    14:00 +11°C° 0,1 mm 6 m/s 735 mmHg 54%
    15:00 +12°C° 0,2 mm 5 m/s 735 mmHg 55%
    16:00 +10°C° 0,2 mm 5 m/s 735 mmHg 56%
    17:00 +11°C° 0,2 mm 4 m/s 736 mmHg 58%
    18:00 +10°C° 0 mm 4 m/s 736 mmHg 64%
    19:00 +8°C° 0 mm 3 m/s 737 mmHg 70%
    20:00 +7°C° 0 mm 3 m/s 737 mmHg 77%
    21:00 +7°C° 0,1 mm 3 m/s 738 mmHg 80%
    22:00 +5°C° 0,1 mm 3 m/s 738 mmHg 83%
    23:00 +5°C° 0,1 mm 3 m/s 738 mmHg 86%

    Poimâine, 27 Aprilie, Vineri

    Timp Temperatura Precipitaţii Vânt Presiune Umiditate
    00:00 +5°C° 0 mm 2 m/s 738 mmHg 88%
    01:00 +5°C° 0 mm 2 m/s 739 mmHg 91%
    02:00 +4°C° 0 mm 2 m/s 739 mmHg 93%
    03:00 +4°C° 0 mm 2 m/s 739 mmHg 94%
    04:00 +3°C° 0 mm 2 m/s 739 mmHg 95%
    05:00 +3°C° 0 mm 2 m/s 740 mmHg 96%
    06:00 +5°C° 0 mm 2 m/s 740 mmHg 89%
    07:00 +6°C° 0 mm 2 m/s 740 mmHg 83%
    08:00 +8°C° 0 mm 3 m/s 741 mmHg 76%
    09:00 +9°C° 0 mm 3 m/s 741 mmHg 67%
    10:00 +10°C° 0 mm 3 m/s 741 mmHg 59%
    11:00 +12°C° 0 mm 3 m/s 741 mmHg 51%
    12:00 +13°C° 0 mm 3 m/s 741 mmHg 47%
    13:00 +13°C° 0 mm 3 m/s 741 mmHg 43%
    14:00 +14°C° 0 mm 3 m/s 741 mmHg 39%
    15:00 +14°C° 0 mm 3 m/s 741 mmHg 40%
    16:00 +14°C° 0 mm 3 m/s 741 mmHg 42%
    17:00 +14°C° 0 mm 3 m/s 741 mmHg 43%
    18:00 +13°C° 0,1 mm 2 m/s 741 mmHg 52%
    19:00 +10°C° 0,1 mm 2 m/s 741 mmHg 60%
    20:00 +8°C° 0,1 mm 2 m/s 741 mmHg 69%
    21:00 +8°C° 0,2 mm 2 m/s 742 mmHg 74%
    22:00 +7°C° 0,2 mm 2 m/s 742 mmHg 80%
    23:00 +6°C° 0,2 mm 2 m/s 743 mmHg 85%

    28 Aprilie, Sâmbătă

    Timp Temperatura Precipitaţii Vânt Presiune Umiditate
    00:00 +6°C° 0 mm 2 m/s 743 mmHg 88%
    01:00 +5°C° 0 mm 2 m/s 743 mmHg 91%
    02:00 +4°C° 0 mm 2 m/s 743 mmHg 94%
    03:00 +4°C° 0 mm 2 m/s 744 mmHg 94%
    04:00 +4°C° 0 mm 2 m/s 744 mmHg 95%
    05:00 +3°C° 0 mm 2 m/s 744 mmHg 96%
    06:00 +5°C° 0 mm 2 m/s 745 mmHg 89%
    07:00 +6°C° 0 mm 2 m/s 745 mmHg 82%
    08:00 +8°C° 0 mm 2 m/s 746 mmHg 75%
    09:00 +9°C° 0 mm 3 m/s 746 mmHg 67%
    10:00 +10°C° 0 mm 3 m/s 746 mmHg 60%
    11:00 +12°C° 0 mm 3 m/s 746 mmHg 52%
    12:00 +12°C° 0 mm 3 m/s 746 mmHg 49%
    13:00 +13°C° 0 mm 3 m/s 746 mmHg 45%
    14:00 +14°C° 0 mm 3 m/s 746 mmHg 41%
    15:00 +14°C° 0 mm 3 m/s 746 mmHg 42%
    16:00 +14°C° 0 mm 3 m/s 746 mmHg 42%
    17:00 +15°C° 0 mm 2 m/s 746 mmHg 43%
    18:00 +13°C° 0 mm 2 m/s 746 mmHg 49%
    19:00 +12°C° 0 mm 2 m/s 746 mmHg 55%
    20:00 +10°C° 0 mm 1 m/s 747 mmHg 61%
    21:00 +8°C° 0 mm 2 m/s 747 mmHg 65%
    22:00 +8°C° 0 mm 2 m/s 747 mmHg 69%
    23:00 +7°C° 0 mm 2 m/s 747 mmHg 72%

    29 Aprilie, Duminică

    Timp Temperatura Precipitaţii Vânt Presiune Umiditate
    00:00 +7°C° 0,1 mm 2 m/s 746 mmHg 72%
    01:00 +8°C° 0,1 mm 2 m/s 746 mmHg 72%
    02:00 +8°C° 0,1 mm 3 m/s 746 mmHg 72%
    03:00 +8°C° 0,2 mm 3 m/s 746 mmHg 73%
    04:00 +9°C° 0,2 mm 3 m/s 745 mmHg 74%
    05:00 +9°C° 0,2 mm 3 m/s 745 mmHg 76%
    06:00 +10°C° 0,1 mm 4 m/s 745 mmHg 73%
    07:00 +11°C° 0,1 mm 4 m/s 744 mmHg 71%
    08:00 +13°C° 0,1 mm 4 m/s 744 mmHg 68%
    09:00 +14°C° 0 mm 4 m/s 744 mmHg 64%
    10:00 +17°C° 0 mm 4 m/s 744 mmHg 61%
    11:00 +19°C° 0 mm 4 m/s 744 mmHg 57%
    12:00 +20°C° 0 mm 5 m/s 743 mmHg 52%
    13:00 +21°C° 0 mm 5 m/s 743 mmHg 48%
    14:00 +22°C° 0 mm 5 m/s 743 mmHg 44%
    15:00 +21°C° 0 mm 4 m/s 743 mmHg 44%
    16:00 +21°C° 0 mm 4 m/s 743 mmHg 45%
    17:00 +21°C° 0 mm 3 m/s 743 mmHg 45%
    18:00 +18°C° 0 mm 2 m/s 743 mmHg 53%
    19:00 +16°C° 0 mm 2 m/s 743 mmHg 61%
    20:00 +14°C° 0 mm 1 m/s 743 mmHg 69%
    21:00 +13°C° 0 mm 1 m/s 743 mmHg 72%
    22:00 +12°C° 0 mm 1 m/s 743 mmHg 74%
    23:00 +10°C° 0 mm 0 m/s 743 mmHg 77%

    30 Aprilie, Luni

    Timp Temperatura Precipitaţii Vânt Presiune Umiditate
    00:00 +10°C° 0 mm 0 m/s 743 mmHg 78%
    01:00 +11°C° 0 mm 1 m/s 743 mmHg 79%
    02:00 +11°C° 0 mm 1 m/s 743 mmHg 80%
    03:00 +11°C° 0 mm 1 m/s 743 mmHg 81%
    04:00 +11°C° 0 mm 1 m/s 743 mmHg 83%
    05:00 +11°C° 0 mm 1 m/s 743 mmHg 84%
    06:00 +13°C° 0,1 mm 1 m/s 743 mmHg 80%
    07:00 +15°C° 0,1 mm 1 m/s 743 mmHg 75%
    08:00 +17°C° 0,1 mm 2 m/s 743 mmHg 71%
    09:00 +19°C° 0,1 mm 2 m/s 742 mmHg 67%
    10:00 +20°C° 0,1 mm 3 m/s 742 mmHg 62%
    11:00 +22°C° 0,1 mm 4 m/s 742 mmHg 58%
    12:00 +23°C° 0,2 mm 4 m/s 741 mmHg 53%
    13:00 +23°C° 0,2 mm 4 m/s 741 mmHg 48%
    14:00 +25°C° 0,2 mm 5 m/s 740 mmHg 43%
    15:00 +23°C° 0 mm 4 m/s 740 mmHg 43%
    16:00 +23°C° 0 mm 4 m/s 739 mmHg 44%
    17:00 +22°C° 0 mm 4 m/s 739 mmHg 45%
    18:00 +21°C° 0 mm 4 m/s 739 mmHg 51%
    19:00 +19°C° 0 mm 3 m/s 738 mmHg 57%
    20:00 +17°C° 0 mm 3 m/s 738 mmHg 64%
    21:00 +16°C° 0 mm 3 m/s 738 mmHg 65%
    22:00 +16°C° 0 mm 3 m/s 738 mmHg 65%
    23:00 +16°C° 0 mm 3 m/s 738 mmHg 66%
    Arată mai mult